781  
ASUS41 KBTV 252330  
RWRBTV  
VERMONT REGIONAL WEATHER ROUNDUP  
NATIONAL WEATHER SERVICE BURLINGTON VT  
600 PM EST SAT JAN 25 2020  
 
NOTE: "FAIR" INDICATES FEW OR NO CLOUDS BELOW 12,000 FEET WITH NO  
SIGNIFICANT WEATHER AND/OR S TO VISIBILITY
.  
 
* THESE REPORTS ARE NOT UNDER NWS QUALITY CONTROL AND/OR DO NOT  
REPORT WEATHER SUCH AS PRECIPITATION AND FOG.
 
 
VTZ001>019-260000-  
_____VERMONT_____  
 
 
CITY SKY/WX TMP DP RH WIND PRES REMARKS
 
BURLINGTON LGT RAIN 38 34 85 S7 29.91S  
MONTPELIER CLOUDY 33 30 88 CALM 29.96F  
MORRISVILLE LGT RAIN 35 32 88 N3 29.93F  
ST. JOHNSBURY* N/A 38 30 73 MISG 29.93F  
LYNDONVILLE* MOCLDY 36 30 79 NE13 29.94F WCI 27  
MIDDLEBURY* LGT RAIN 37 32 83 S12G17 29.89S WCI 29  
RUTLAND* LGT RAIN 37 36 96 SE17G24 29.86F WCI 27  
SPRINGFIELD LGT RAIN 36 34 92 NE3 29.94F FOG  
HIGHGATE* MIX PCPN 39 36 88 E3 29.92F  
NEWPORT* CLOUDY 34 30 85 E10 29.94F WCI 26  
BENNINGTON LGT RAIN 41 34 76 E6 29.80F  
ISLAND POND* N/A 34 N/A N/A SE14 N/A WCI 24  
GALLUP MILLS* N/A 34 N/A N/A MISG N/A  
LAKE EDEN* N/A 36 N/A N/A CALM N/A  
MT. MANSFIELD* N/A 30 N/A N/A SE39 N/A WCI 13  
 
_____LAKE CHAMPLAIN_____  
 
 
CITY SKY/WX TMP DP RH WIND PRES REMARKS
 
BURTON ISLAND* N/A 34 32 93 E1 N/A  
COLCHESTER RF* N/A 7 5 92 E2 N/A  
DIAMOND ISL* N/A 37 36 93 NE1 N/A  
 

 
 
NYZ007-026>031-035-052-083-087-260000-  
_____NORTHERN NEW YORK_____  
 
 
CITY SKY/WX TMP DP RH WIND PRES REMARKS
 
PLATTSBURGH LGT RAIN 34 33 96 NW5 29.92F WCI 30  
SARANAC LAKE LGT SNOW 33 31 92 E5 29.81R VSB 1 WCI 29  
MASSENA CLOUDY 33 30 88 NE15 29.88S WCI 23  
OGDENSBURG* LGT SNOW 32 32 100 NE5 29.83F WCI 27  
POTSDAM* LGT RAIN 34 32 93 NE8 29.83F WCI 27  
WATERTOWN LGT RAIN 33 32 96 E9 29.82F FOG WCI 25  
FT DRUM MOCLDY 32 30 93 E8 29.80F WCI 25  
ALBANY RAIN 39 36 89 N7 29.84F FOG  
GLENS FALLS LGT RAIN 37 35 92 N10 29.85F WCI 30  
 

 
NHZ002-005-011-260000-  
_____NEW HAMPSHIRE_____  
 
 
CITY SKY/WX TMP DP RH WIND PRES REMARKS
 
LEBANON CLOUDY 38 33 82 VRB6 29.94F  
KEENE LGT RAIN 40 37 89 CALM 29.90F  
MT WASHINGTON FOG 18 18 100 SE56G66 N/A VSB 1/16WCI -7  
PLYMOUTH CLOUDY 36 32 88 E9G16 30.00F WCI 29  
WHITEFIELD CLOUDY 37 30 75 SE5 29.97S  
 

 
 
_____REGIONAL QUEBEC LOCATIONS_____  
 
 
CITY SKY/WX TMP DP RH WIND PRES REMARKS
 
MONTREAL LGTSLEET 32 32 100 NE16 29.94F WCI 21  
QUEBEC CITY CLOUDY 28 25 86 E12 30.12S WCI 18  
SHERBROOKE MOCLDY 36 27 69 NE5 29.98F WCI 32  
 
_____REGIONAL ONTARIO LOCATIONS_____  
 
 
CITY SKY/WX TMP DP RH WIND PRES REMARKS
 
OTTAWA LGT SNOW 32 30 93 E15G21 29.87S WCI 22  
 
______KEY______  
VSB - VISIBILITY IN MILES  
WCI - WIND CHILL INDEX  
HX - HEAT INDEX  

 
NNNN  
 
 
CLICK HERE TO GO TO PREVIOUS BULLETINS.

The Nexlab VT Page
The Nexlab NY Page Main Text Page